Terug naar catalogus

STARLINK-2605

ActiefCommunicatieVLEO
NORAD 48392·PAYLOAD·🇺🇸 United States

Gelanceerd May 4, 2021 vanaf Cape Canaveral Space Force Station

Loading…

Volgende Passages (komende 24 uur)

TLE

VersSource: CelesTrak SupGP

Epoch: Sep 15, 2026, 02:35 UTC

1 48392C 21038AR  26258.10812500  .00016772  00000+0  53943-3 0  2587
2 48392  53.1586 171.0418 0001383  77.5354 329.7237 15.31687932    13

Volg STARLINK-2605 in realtime met AllMySat

Download on the App Store